Crestview, FL

9:28 PM CDT on May 27, 2018 (GMT -0500)
Sikes

Weather History for KCEW - February, 2014

Change the Weather History Date:

Friday, February 21, 2014

  Actual Average Record
Temperature  
Mean Temperature 56 °F -  
Max Temperature 70 °F 70 °F 82 °F (2018)
Min Temperature 43 °F 50 °F 24 °F (2009)
Degree Days  
Heating Degree Days 8    
Growing Degree Days 6 (Base 50)    
Moisture  
Dew Point 49 °F    
Average Humidity 69    
Maximum Humidity 100    
Minimum Humidity 22    
Precipitation  
Precipitation 0.00 in - - ()
Sea Level Pressure  
Sea Level Pressure 30.00 in    
Wind  
Wind Speed 10 mph (NW)    
Max Wind Speed 21 mph    
Max Gust Speed 40 mph    
Visibility 7 miles    
Events Rain , Thunderstorm    
Averages and records for this station are not official NWS values.
T = Trace of Precipitation, MM = Missing Value Source: NWS Daily Summary

Daily Weather History Graph

Daily Weather History Graph

Search for Another Location

Airport or City:

Astronomy

Feb. 21, 2014 Rise Set
Actual Time 6:21 AM CST 5:38 PM CST
Civil Twilight 5:56 AM CST 6:03 PM CST
Nautical Twilight 5:28 AM CST 6:31 PM CST
Astronomical Twilight 5:00 AM CST 6:59 PM CST
Moon No Moon Rise 10:11 AM CST (2/21)
Length of Visible Light 12h 06m
Length of Day
11h 17m
Waning Gibbous, 60% of the Moon is Illuminated
Feb 21
Waning Gibbous
Feb 22
Last Quarter
Mar 1
New
Mar 8
First Quarter
Mar 16
Full

Hourly Weather History & Observations

Time (CST) Temp. Windchill Dew Point Humidity Pressure Visibility Wind Dir Wind Speed Gust Speed Precip Events Conditions
12:00 AM 68.0 °F - 66.0 °F 93% 29.95 in 7.0 mi South 11.5 mph - N/A   Overcast
12:53 AM 68.0 °F - 66.0 °F 93% 29.93 in 5.0 mi South 16.1 mph 25.3 mph 0.00 in   Overcast
1:33 AM 68.0 °F - 66.9 °F 96% 29.92 in 7.0 mi South 12.7 mph - 0.00 in Thunderstorm Overcast
1:49 AM 69.8 °F - 66.2 °F 88% 29.92 in 6.0 mi South 15.0 mph 24.2 mph 0.00 in Rain Light Rain
1:53 AM 69.1 °F - 66.9 °F 93% 29.92 in 6.0 mi South 15.0 mph - 0.00 in Rain Light Rain
2:53 AM 70.0 °F - 66.9 °F 90% 29.89 in 6.0 mi South 11.5 mph 23.0 mph 0.00 in   Overcast
3:18 AM 69.1 °F - 66.9 °F 93% 29.90 in 3.0 mi South 9.2 mph - N/A Thunderstorm Overcast
3:31 AM 69.1 °F - 66.9 °F 93% 29.91 in 2.5 mi South 11.5 mph - 0.00 in Rain , Thunderstorm Light Thunderstorms and Rain
3:46 AM 69.1 °F - 66.9 °F 93% 29.89 in 1.8 mi South 9.2 mph - 0.00 in Rain Light Rain
3:53 AM 69.1 °F - 66.9 °F 93% 29.88 in 1.8 mi South 9.2 mph 19.6 mph 0.00 in Rain , Thunderstorm Light Rain
4:11 AM 64.0 °F - 64.0 °F 100% 29.95 in 0.8 mi WSW 13.8 mph 40.3 mph N/A Rain , Thunderstorm Heavy Thunderstorms and Rain
4:19 AM 64.0 °F - 64.0 °F 100% 29.93 in 1.0 mi West 9.2 mph - N/A Rain , Thunderstorm Heavy Thunderstorms and Rain
4:41 AM 63.0 °F - - N/A% 29.95 in 2.0 mi SSW 3.5 mph - N/A Rain , Thunderstorm Heavy Thunderstorms and Rain
4:49 AM 62.6 °F - - N/A% 29.94 in 2.0 mi WSW 3.5 mph - N/A Rain , Thunderstorm Heavy Thunderstorms and Rain
4:53 AM 63.0 °F - - N/A% 29.95 in 2.5 mi SW 5.8 mph - N/A Rain , Thunderstorm Heavy Thunderstorms and Rain
5:03 AM 63.0 °F - - N/A% 29.94 in 1.8 mi Calm Calm - N/A Rain , Thunderstorm Heavy Rain
5:05 AM 63.0 °F - - N/A% 29.94 in 2.0 mi Calm Calm - N/A Rain , Thunderstorm Heavy Thunderstorms and Rain
5:16 AM 63.0 °F - - N/A% 29.95 in 3.0 mi SSW 3.5 mph - N/A Rain , Thunderstorm Thunderstorms and Rain
5:26 AM 63.0 °F - - N/A% 29.95 in 4.0 mi West 3.5 mph - N/A Rain , Thunderstorm Heavy Rain
5:53 AM 55.0 °F - - N/A% 30.00 in 10.0 mi NNW 18.4 mph 34.5 mph N/A Rain , Thunderstorm Light Rain
6:05 AM 54.0 °F - - N/A% 30.02 in 10.0 mi NNW 19.6 mph 32.2 mph N/A Thunderstorm Overcast
6:08 AM 53.1 °F - - N/A% 30.03 in 10.0 mi NNW 20.7 mph 31.1 mph N/A   Overcast
6:29 AM 52.0 °F - - N/A% 30.04 in 10.0 mi NNW 12.7 mph 24.2 mph N/A   Overcast
6:53 AM 51.1 °F - - N/A% 30.05 in 10.0 mi North 10.4 mph 21.9 mph N/A   Overcast
7:53 AM 52.0 °F - 48.9 °F 89% 30.08 in 10.0 mi North 12.7 mph 18.4 mph N/A   Overcast
8:53 AM 54.0 °F - 41.0 °F 62% 30.10 in 10.0 mi North 10.4 mph - N/A   Overcast
9:53 AM 57.0 °F - 37.9 °F 49% 30.11 in 10.0 mi North 15.0 mph 24.2 mph N/A   Overcast
10:53 AM 61.0 °F - 34.0 °F 36% 30.10 in 10.0 mi North 9.2 mph 19.6 mph N/A   Clear
11:53 AM 64.0 °F - 34.0 °F 33% 30.08 in 10.0 mi NNW 11.5 mph 16.1 mph N/A   Clear
12:53 PM 66.0 °F - 32.0 °F 28% 30.05 in 10.0 mi NNE 10.4 mph - N/A   Clear
1:53 PM 69.1 °F - 30.0 °F 23% 30.04 in 10.0 mi NNE 11.5 mph - N/A   Clear
2:53 PM 69.1 °F - 28.9 °F 22% 30.03 in 10.0 mi Variable 5.8 mph - N/A   Clear
3:53 PM 68.0 °F - 30.0 °F 24% 30.04 in 10.0 mi NNE 8.1 mph - N/A   Clear
4:53 PM 63.0 °F - 33.1 °F 33% 30.05 in 10.0 mi North 3.5 mph - N/A   Clear
5:53 PM 57.9 °F - 36.0 °F 44% 30.06 in 10.0 mi North 3.5 mph - N/A   Clear
6:53 PM 51.1 °F - 42.1 °F 71% 30.07 in 10.0 mi North 4.6 mph - N/A   Clear
7:53 PM 50.0 °F - 39.9 °F 68% 30.08 in 10.0 mi North 3.5 mph - N/A   Clear
8:53 PM 46.0 °F - 39.0 °F 76% 30.10 in 10.0 mi Calm Calm - N/A   Clear
9:53 PM 43.0 °F - 37.9 °F 82% 30.10 in 10.0 mi Calm Calm - N/A   Clear
10:53 PM 44.1 °F 41.5 °F 39.0 °F 82% 30.09 in 10.0 mi North 4.6 mph - N/A   Clear
11:53 PM 48.0 °F - 34.0 °F 58% 30.11 in 10.0 mi North 4.6 mph - N/A   Clear